This is the latest recevied weather packets stored in our database for station/object HB9FHL-13. If no packets are shown the sender has not sent any weather packets the latest 10 day(s).
| Time | Temp. | Humidity | Pressure | Rain* | Wind** | Luminosity | Snow |
|---|---|---|---|---|---|---|---|
| 1777448486 | 11.11° C | - | 1020.5 hPa | 1.27 mm | - | - | - |
| 1777448186 | 10.56° C | - | 1015.2 hPa | 1.27 mm | - | - | - |
| 1777447885 | 10.56° C | - | 1015.2 hPa | 1.27 mm | - | - | - |
| 1777447622 | 11.11° C | - | 1021 hPa | 1.27 mm | - | - | - |
| 1777447585 | 11.11° C | - | 1021 hPa | 1.27 mm | - | - | - |
| 1777447284 | 11.67° C | - | 1023.4 hPa | 1.02 mm | - | - | - |
| 1777447028 | 10.56° C | - | 1015.3 hPa | 1.02 mm | - | - | - |
| 1777446984 | 10.56° C | - | 1015.3 hPa | 1.02 mm | - | - | - |
| 1777446683 | 10° C | - | 1012.7 hPa | 1.02 mm | - | - | - |
| 1777446383 | 11.11° C | - | 1010.6 hPa | 1.02 mm | - | - | - |
| 1777446082 | 11.11° C | - | 1019.2 hPa | 1.02 mm | - | - | - |
| 1777445782 | 11.11° C | - | 1016.2 hPa | 1.02 mm | - | - | - |
| 1777445481 | 11.67° C | - | 1018.8 hPa | 1.02 mm | - | - | - |
| 1777445219 | 11.11° C | - | 1017.4 hPa | 1.02 mm | - | - | - |
| 1777445181 | 11.11° C | - | 1017.4 hPa | 1.02 mm | - | - | - |
| 1777444932 | 10.56° C | - | 1018.6 hPa | 1.02 mm | - | - | - |
| 1777444881 | 10.56° C | - | 1018.6 hPa | 1.02 mm | - | - | - |
| 1777444580 | 11.11° C | - | 1019.2 hPa | 1.02 mm | - | - | - |
| 1777444280 | 11.11° C | - | 1017.5 hPa | 1.02 mm | - | - | - |
| 1777443979 | 10.56° C | - | 1020.3 hPa | 1.02 mm | - | - | - |
| 1777443678 | 11.11° C | - | 1017.9 hPa | 1.02 mm | - | - | - |
| 1777443378 | 11.67° C | - | 1017.2 hPa | 1.02 mm | - | - | - |
| 1777443078 | 11.67° C | - | 1017.1 hPa | 1.02 mm | - | - | - |
| 1777442777 | 11.11° C | - | 1018.1 hPa | 1.02 mm | - | - | - |
| 1777442476 | 11.11° C | - | 1012.8 hPa | 1.02 mm | - | - | - |
* Rain since midnight (hover to see other rain measurements)
** Current wind speed in m/s (hover to see current wind gust speed)